Temp
86 87 87 87 86 85 84 83 82 83 83 82 82 83 83 85 84 86 84 84 84 84 84 83 81 82 83 83 81 82 79 82 80 78 82 83 83 82 84 85 84 82 83
84 84 85 86 86 84 83 82 82 83 82 84 83 85 84 85 85 86 84 84 85 84 83 83 83 82 82 79 80 79 80 80 79 76 75 76 79 83 83 83 83 81 83
83 84 84 85 85 83 82 82 82 83 82 83 83 82 82 82 82 83 84 84 84 84 82 82 83 80 82 82 80 79 76 77 79 76 76 74 74 76 82 80 82 79 81
86 87 85 85 85 85 85 84 83 82 83 82 82 80 82 82 84 84 84 84 83 83 83 82 81 80 82 79 80 80 78 76 76 78 78 76 75 73 74 81 82 82 80
87 87 87 87 87 86 86 85 83 82 83 82 82 82 81 84 84 82 80 80 80 82 82 81 80 79 82 79 78 76 76 78 78 77 78 76 77 72 74 73 77 82 81
88 89 89 89 87 87 86 85 82 81 82 81 81 80 81 81 81 80 80 80 81 81 80 80 79 79 79 78 78 77 76 76 77 78 76 77 76 76 75 72 73 73 79
88 88 87 86 85 85 85 85 82 80 81 81 81 80 80 80 79 79 80 79 80 80 78 78 78 79 78 78 78 76 76 76 76 75 77 78 78 78 76 74 74 72 77
88 88 87 86 85 85 84 83 81 80 81 81 81 81 81 82 78 80 82 80 82 82 80 79 79 78 78 78 76 78 78 76 76 75 74 77 78 77 76 75 73 71 74
88 88 89 87 87 85 83 83 82 81 82 82 81 80 81 80 80 79 76 80 78 81 79 79 77 77 77 77 77 79 77 76 76 76 75 75 78 78 77 76 75 72 69
89 89 90 88 88 87 86 85 83 81 82 82 82 82 80 79 80 77 72 76 78 78 78 77 78 77 77 77 76 77 77 75 77 77 74 74 78 77 77 76 76 74 71
88 89 89 89 88 88 87 86 84 83 83 82 82 81 80 78 73 77 71 71 73 74 76 75 76 77 77 77 75 75 76 74 75 75 74 74 75 77 77 75 75 74 72
89 89 89 88 88 87 88 86 87 86 85 84 82 79 76 71 76 77 75 71 71 72 73 73 75 76 77 77 75 75 76 74 74 75 74 74 77 73 73 73 71 74 73
85 86 88 86 86 86 85 87 87 88 88 85 82 78 71 75 72 71 71 70 71 70 71 72 73 74 76 75 75 75 75 74 73 75 75 75 75 73 73 74 74 75 73
83 83 85 85 85 85 84 85 86 89 88 86 81 76 73 73 74 72 69 67 67 68 69 70 71 73 74 75 75 75 74 74 76 76 76 76 75 74 73 73 71 71 71
82 82 83 84 83 83 83 84 85 86 87 82 80 77 73 74 73 72 70 67 67 71 71 70 71 73 74 77 75 75 75 75 75 77 76 76 74 70 70 74 73 71 71
82 83 83 83 82 82 82 83 83 84 84 80 78 76 73 73 73 73 72 70 67 68 70 69 70 73 76 69 67 72 76 76 75 75 76 76 70 69 66 65 65 67 68
84 83 83 82 82 83 83 82 82 83 80 79 77 73 73 73 73 74 71 71 69 70 71 71 71 73 73 66 65 66 76 76 76 75 74 73 77 68 72 68 64 64 63
86 85 85 85 84 86 85 83 83 80 78 77 75 74 73 73 74 73 71 71 71 71 73 73 73 73 75 64 62 64 73 73 75 74 74 73 72 71 68 69 70 71 71
82 83 87 86 83 84 83 81 80 79 78 76 74 74 74 73 72 71 71 72 70 72 73 74 73 73 74 59 59 61 65 64 66 71 71 70 70 63 60 67 67 68 69
83 82 83 84 84 82 83 80 78 77 76 76 75 75 74 73 72 72 71 72 71 71 76 74 73 69 72 58 57 60 62 62 62 64 64 60 64 57 57 65 66 65 67
80 82 83 82 80 81 80 78 77 76 78 78 76 74 74 73 73 71 71 70 70 72 72 72 71 70 70 63 56 56 60 61 60 63 70 71 56 53 53 53 65 63 61
80 81 77 76 77 78 79 76 76 77 76 73 73 72 72 73 73 71 71 71 70 70 69 68 65 73 72 58 56 55 55 61 68 71 73 68 53 51 52 56 54 54 56
76 79 78 75 75 76 76 74 68 71 73 74 72 70 71 71 71 69 70 69 69 70 68 64 67 71 67 65 53 52 52 54 67 72 63 53 50 50 54 54 53 53 65
74 77 77 75 72 73 70 72 72 73 73 72 71 72 71 70 70 71 73 71 71 70 69 67 70 65 64 68 65 64 65 56 62 57 66 60 58 53 56 60 62 65 64
71 71 71 71 68 70 70 71 70 69 72 72 72 71 70 69 64 60 61 69 67 64 71 70 67 65 69 69 61 62 69 70 62 62 67 66 65 65 65 65 64 64 64
70 71 70 71 68 67 69 70 70 70 71 70 71 71 71 69 65 63 60 45 45 44 45 46 61 65 51 46 47 46 44 44 44 62 66 66 65 65 64 63 63 64 60
MSLP
1010.99 1011.61 1012.21 1012.80 1013.41 1013.95 1014.45 1014.85 1015.25 1015.50 1016.09 1016.43 1016.63 1016.71 1016.65 1016.85 1017.01 1016.95 1017.12 1017.31 1017.36 1017.47 1017.53 1017.70 1018.07 1018.33 1018.50 1018.79 1019.11 1019.18 1019.18 1018.94 1019.08 1018.89 1018.28 1018.42 1018.53 1018.33 1018.17 1018.03 1018.10 1018.26 1018.29
1010.55 1011.11 1011.57 1012.13 1012.70 1013.21 1013.64 1014.25 1014.66 1015.05 1015.52 1015.82 1016.08 1016.21 1016.44 1016.63 1016.60 1016.68 1016.93 1017.08 1017.18 1017.30 1017.43 1017.64 1017.97 1018.22 1018.51 1018.86 1019.09 1019.35 1019.12 1019.12 1019.30 1018.94 1018.98 1018.22 1018.33 1018.43 1018.42 1018.40 1018.29 1018.33 1018.16
1009.48 1010.14 1010.74 1011.23 1011.83 1012.48 1013.06 1013.53 1013.98 1014.41 1014.87 1015.38 1015.97 1016.28 1016.45 1016.60 1016.63 1016.75 1016.82 1016.76 1016.98 1017.13 1017.43 1017.71 1017.83 1018.32 1018.42 1018.56 1018.97 1019.29 1019.52 1019.16 1019.33 1019.48 1019.16 1018.48 1018.15 1018.40 1018.38 1018.44 1018.39 1018.37 1018.15
1008.49 1008.96 1009.67 1010.25 1010.88 1011.54 1012.19 1012.78 1013.33 1013.82 1014.28 1014.85 1015.27 1015.52 1015.67 1015.82 1015.90 1016.25 1016.51 1016.67 1016.88 1017.08 1017.36 1017.70 1017.96 1018.11 1018.11 1018.55 1018.77 1019.01 1019.23 1019.35 1019.07 1019.38 1019.53 1019.52 1019.34 1018.73 1018.20 1018.30 1018.28 1018.38 1018.41
1007.16 1007.76 1008.47 1009.13 1009.87 1010.60 1011.26 1011.90 1012.62 1013.15 1013.58 1014.20 1014.59 1014.94 1015.26 1015.39 1015.88 1016.28 1016.63 1016.87 1017.04 1017.08 1017.31 1017.69 1017.97 1018.18 1018.18 1018.61 1018.75 1018.94 1019.18 1019.34 1019.15 1019.12 1019.20 1019.39 1019.45 1019.60 1019.06 1018.33 1018.20 1018.20 1018.45
1005.98 1006.60 1007.35 1008.25 1008.99 1009.84 1010.41 1011.01 1011.73 1012.27 1012.94 1013.69 1014.09 1014.34 1014.64 1015.22 1015.70 1015.96 1016.36 1016.75 1016.98 1017.20 1017.42 1017.67 1017.98 1018.24 1018.43 1018.72 1018.79 1019.11 1019.23 1019.30 1019.36 1019.26 1019.22 1018.99 1018.89 1018.94 1019.05 1018.93 1018.68 1018.46 1018.26
1004.76 1005.31 1006.18 1007.20 1007.96 1008.62 1009.32 1010.05 1010.82 1011.43 1012.24 1012.83 1013.19 1013.62 1014.11 1014.77 1015.09 1015.45 1015.79 1016.27 1016.66 1017.02 1017.36 1017.68 1018.01 1018.17 1018.49 1018.68 1018.75 1019.10 1019.21 1019.33 1019.17 1019.34 1019.16 1019.16 1018.99 1019.17 1019.15 1018.95 1018.56 1018.59 1018.31
1003.40 1004.09 1004.96 1005.83 1006.55 1007.35 1008.27 1009.06 1009.80 1010.64 1011.24 1011.81 1012.34 1013.12 1013.59 1014.06 1014.53 1014.92 1015.31 1015.92 1016.17 1016.70 1017.06 1017.47 1017.78 1018.14 1018.43 1018.62 1018.95 1019.03 1018.97 1019.09 1019.19 1019.23 1019.44 1019.21 1019.16 1019.18 1019.09 1019.00 1018.85 1018.22 1017.93
1001.74 1002.49 1003.59 1004.62 1005.23 1006.25 1007.09 1007.71 1008.65 1009.62 1010.18 1010.87 1011.80 1012.44 1012.97 1013.50 1013.91 1014.43 1015.42 1015.82 1016.33 1016.32 1016.59 1017.11 1017.51 1017.94 1018.27 1018.45 1018.54 1018.58 1018.89 1019.04 1019.08 1019.09 1019.23 1019.16 1018.87 1019.16 1019.06 1019.11 1019.07 1018.79 1017.99
1000.56 1001.48 1002.22 1003.21 1004.11 1004.84 1005.54 1006.79 1007.70 1008.16 1008.91 1010.08 1010.92 1011.70 1012.36 1013.04 1014.04 1015.38 1015.24 1015.52 1015.88 1016.54 1016.78 1016.90 1017.53 1017.82 1017.89 1017.90 1018.14 1018.13 1018.35 1018.61 1018.73 1018.73 1018.82 1018.86 1018.55 1018.76 1018.92 1018.97 1019.09 1019.06 1018.57
999.37 1000.18 1001.02 1002.19 1003.12 1003.75 1004.91 1005.73 1006.63 1007.39 1008.31 1008.92 1009.80 1010.80 1011.70 1012.85 1014.00 1014.33 1015.05 1014.93 1016.17 1016.65 1017.08 1017.25 1017.26 1017.46 1017.48 1017.81 1018.08 1018.14 1018.22 1018.37 1018.33 1018.49 1018.46 1018.42 1018.36 1018.23 1018.18 1018.31 1018.74 1018.65 1018.70
998.68 999.56 1000.44 1001.51 1002.38 1003.14 1003.88 1004.65 1005.34 1006.13 1006.68 1007.65 1008.93 1010.14 1011.52 1012.27 1012.34 1014.16 1015.43 1015.32 1015.77 1016.35 1016.91 1017.16 1017.09 1017.15 1017.25 1017.49 1017.85 1017.91 1018.01 1018.00 1018.01 1017.53 1017.69 1017.85 1017.80 1017.78 1017.59 1017.67 1017.85 1017.91 1017.96
998.66 999.35 1000.05 1000.64 1001.46 1002.29 1003.02 1003.69 1004.39 1004.90 1005.94 1007.28 1008.62 1009.95 1010.89 1011.35 1012.19 1012.79 1013.63 1016.05 1016.12 1015.93 1016.58 1016.76 1016.73 1016.80 1016.99 1017.01 1017.19 1017.30 1017.41 1017.53 1017.44 1017.12 1017.11 1017.14 1017.25 1017.18 1017.21 1017.07 1017.01 1016.99 1017.14
998.49 999.09 999.58 1000.01 1000.80 1001.59 1002.31 1003.00 1003.63 1004.65 1005.73 1006.77 1008.15 1009.39 1010.22 1010.62 1011.23 1012.52 1012.88 1013.76 1013.36 1015.12 1015.06 1015.05 1015.65 1016.12 1016.34 1016.37 1016.46 1016.68 1016.67 1016.83 1016.71 1016.53 1016.63 1016.72 1016.59 1016.50 1016.63 1016.84 1016.76 1016.76 1016.60
998.13 998.42 998.73 999.36 1000.18 1001.08 1001.77 1002.46 1003.29 1004.20 1005.01 1006.36 1007.61 1008.45 1009.27 1009.92 1010.76 1011.30 1011.43 1012.07 1012.71 1013.44 1014.27 1014.26 1015.06 1015.48 1015.66 1015.56 1015.83 1016.04 1015.95 1016.01 1015.98 1015.88 1016.11 1016.31 1016.33 1016.37 1016.16 1016.39 1016.14 1016.20 1016.01
996.99 997.48 998.17 998.96 999.55 1000.19 1001.05 1002.13 1002.97 1003.82 1004.88 1006.03 1006.89 1007.72 1008.56 1009.06 1009.76 1010.44 1010.81 1011.08 1011.88 1012.04 1012.87 1013.50 1014.10 1014.46 1014.55 1014.79 1015.31 1015.43 1015.38 1015.29 1015.28 1015.16 1015.36 1015.56 1015.89 1016.07 1016.00 1016.17 1015.97 1015.95 1015.70
995.82 996.55 997.19 998.01 998.98 999.84 1000.82 1001.74 1002.80 1003.81 1004.72 1005.57 1006.42 1007.44 1008.05 1008.44 1008.94 1009.62 1010.47 1011.09 1011.46 1012.53 1012.43 1012.58 1013.11 1013.41 1013.86 1014.29 1014.32 1014.89 1014.89 1014.79 1014.78 1014.78 1015.05 1015.08 1015.17 1015.71 1015.57 1015.50 1015.42 1015.37 1015.29
995.66 996.21 997.04 997.87 998.72 999.60 1000.49 1001.53 1002.50 1003.43 1004.32 1005.22 1006.27 1007.11 1007.72 1008.33 1009.01 1009.49 1009.71 1010.38 1011.10 1011.63 1011.70 1011.80 1012.20 1012.75 1012.93 1013.34 1014.02 1014.65 1014.76 1014.75 1014.65 1014.37 1014.49 1014.72 1014.94 1015.20 1015.41 1015.35 1014.84 1014.56 1014.45
995.75 996.40 996.88 997.70 998.63 999.35 1000.30 1001.29 1002.20 1003.12 1004.12 1004.88 1005.76 1006.51 1007.06 1007.52 1008.28 1008.90 1009.24 1009.96 1010.69 1010.99 1011.15 1011.36 1011.74 1012.17 1012.44 1013.25 1014.06 1014.54 1015.09 1015.21 1014.85 1014.33 1014.55 1014.53 1014.65 1014.97 1015.42 1015.10 1014.59 1014.26 1013.86
995.32 996.05 996.70 997.62 998.58 999.50 1000.27 1000.83 1001.72 1002.58 1003.38 1004.12 1004.84 1005.39 1006.63 1007.36 1007.93 1008.58 1009.19 1009.87 1010.50 1010.83 1010.78 1011.04 1011.43 1011.39 1011.50 1012.12 1012.57 1012.66 1014.39 1015.13 1014.86 1014.93 1014.70 1014.63 1014.61 1014.96 1015.14 1014.89 1014.36 1014.11 1013.71
995.73 996.60 996.96 997.51 998.40 999.04 999.89 1000.61 1001.49 1001.82 1002.26 1003.12 1003.91 1004.98 1005.31 1006.85 1007.55 1008.42 1009.03 1009.47 1009.85 1010.12 1010.22 1010.55 1010.71 1010.95 1011.21 1011.88 1011.69 1012.32 1013.37 1014.05 1014.42 1014.29 1014.00 1014.00 1014.48 1014.82 1014.98 1014.91 1014.36 1014.27 1014.34
997.10 997.21 997.75 998.37 999.14 999.90 1000.49 1001.32 1001.96 1002.51 1003.36 1003.73 1003.59 1004.41 1005.34 1006.42 1007.17 1007.86 1008.72 1008.94 1009.28 1009.67 1009.84 1010.14 1010.40 1010.44 1010.92 1011.37 1011.73 1012.36 1013.01 1013.47 1013.59 1013.33 1013.26 1013.71 1014.34 1014.60 1014.82 1014.77 1014.53 1014.55 1014.23
998.52 998.51 998.64 999.53 1000.19 1000.78 1001.21 1001.97 1002.76 1003.36 1003.47 1004.83 1003.93 1004.34 1005.34 1006.15 1006.59 1007.47 1008.14 1008.69 1008.97 1009.33 1009.70 1009.77 1009.91 1009.95 1010.84 1011.40 1011.98 1012.23 1012.36 1012.98 1013.16 1013.13 1013.34 1013.85 1014.13 1014.28 1014.45 1014.48 1014.41 1014.13 1013.31
999.59 999.72 999.48 999.84 1000.63 1001.29 1002.07 1002.34 1002.14 1003.90 1004.48 1004.37 1004.42 1004.97 1005.55 1006.21 1006.78 1007.25 1008.01 1008.64 1008.96 1009.15 1009.22 1009.45 1009.68 1010.25 1010.83 1011.25 1011.71 1011.92 1012.43 1012.99 1013.12 1013.53 1013.40 1013.56 1013.63 1013.95 1013.95 1013.86 1013.64 1013.41 1013.26
1000.55 1000.67 1000.71 1001.00 1001.57 1002.41 1001.76 1003.58 1003.98 1004.33 1002.79 1004.43 1005.46 1005.71 1006.16 1006.54 1007.38 1008.37 1009.12 1009.00 1009.05 1009.65 1009.66 1009.79 1010.06 1010.35 1010.27 1010.59 1011.04 1011.43 1011.97 1012.35 1012.82 1012.96 1012.88 1012.80 1012.85 1012.98 1013.06 1013.08 1013.19 1013.18 1013.21
1001.06 1001.16 1001.08 1001.22 1000.81 1002.58 1003.04 1004.22 1004.34 1003.65 1004.07 1005.50 1005.83 1006.27 1006.57 1007.05 1007.86 1008.30 1009.07 1010.32 1010.32 1009.94 1010.22 1010.38 1010.35 1011.22 1011.06 1011.45 1011.89 1012.24 1012.57 1012.70 1012.85 1012.89 1012.30 1012.20 1012.40 1012.62 1012.89 1012.88 1012.88 1012.88 1013.15
Wind_Speed
20 19 19 17 16 15 15 16 14 14 10 8 8 8 8 7 7 7 9 8 7 6 4 3 5 5 5 1 1 2 3 3 3 5 4 1 1 5 3 4 5 6 6
19 18 18 18 18 18 18 16 16 14 12 10 8 6 5 6 6 6 6 7 7 8 6 6 6 5 4 3 1 2 3 2 3 4 2 2 3 1 3 4 5 6 4
20 19 20 20 19 19 18 16 16 15 13 13 7 5 3 2 4 6 6 7 8 7 6 7 6 6 3 3 2 1 2 3 1 2 3 1 2 4 1 1 3 4 4
20 19 20 20 20 19 18 17 16 15 14 14 11 11 9 9 7 6 5 5 7 7 7 8 7 6 4 4 3 2 1 2 2 1 2 1 2 3 2 1 1 3 4
22 22 21 20 20 20 18 17 16 15 15 14 13 11 12 8 5 4 4 4 4 6 8 8 7 6 5 4 4 4 3 2 2 1 1 2 2 1 2 3 3 1 3
24 23 22 20 18 18 18 18 17 16 15 15 16 15 13 11 7 6 6 5 5 5 6 7 6 6 4 5 5 4 5 3 2 2 3 3 1 1 2 3 5 5 1
24 23 22 20 19 20 20 17 17 17 15 17 17 17 16 14 12 9 8 8 7 6 8 8 7 6 5 5 5 5 4 5 4 4 4 3 3 2 4 5 5 4 3
23 23 21 21 21 21 20 18 18 17 17 17 16 14 15 11 8 10 8 8 8 7 7 8 8 7 7 6 5 5 5 5 5 6 5 4 5 4 5 5 5 7 5
25 27 25 23 22 19 21 21 19 17 17 17 13 15 14 14 11 12 8 8 6 7 9 9 9 8 7 8 7 5 5 5 5 6 6 7 5 6 5 6 6 7 9
23 25 24 23 20 21 21 19 19 21 18 16 15 14 15 13 8 5 6 8 8 7 7 9 9 9 9 8 7 6 6 6 6 6 7 7 6 6 6 6 7 7 8
22 23 21 21 21 20 18 19 19 18 17 17 16 15 14 11 8 9 6 8 5 6 7 8 9 10 9 8 8 7 7 8 7 7 8 9 8 7 7 7 7 8 8
19 20 20 21 20 19 19 21 20 20 20 17 16 14 11 13 15 9 6 7 5 5 6 7 9 10 9 8 8 8 7 9 10 8 8 9 7 10 9 7 9 9 9
16 16 18 19 19 19 17 18 19 22 19 16 16 14 14 16 14 13 13 5 4 2 7 8 10 9 10 9 9 10 10 10 9 8 8 9 8 10 9 9 8 9 8
14 15 16 18 17 17 17 16 17 17 16 16 15 15 16 15 15 14 14 13 11 12 13 11 9 9 10 10 11 10 10 11 9 9 9 10 9 9 9 7 9 10 9
15 17 18 16 16 16 15 15 15 14 15 15 15 16 17 16 16 17 16 14 14 12 9 10 10 12 12 10 12 12 11 10 10 9 9 10 10 10 9 7 9 9 9
17 18 16 16 17 17 16 14 14 15 14 15 16 16 18 18 19 17 16 15 14 15 12 11 12 14 11 10 13 13 10 10 10 9 10 9 9 11 10 11 12 10 11
16 16 18 15 14 15 13 14 13 14 15 15 15 18 18 18 19 17 16 16 16 13 13 12 12 15 11 14 15 13 10 9 10 9 10 9 6 5 7 7 9 11 10
12 12 11 12 12 12 12 12 13 14 14 14 15 16 17 17 16 17 19 17 13 15 14 14 14 13 12 11 11 7 8 8 11 10 9 8 8 5 5 8 9 9 7
7 9 10 11 11 12 12 13 13 12 12 14 15 16 17 18 18 18 17 14 12 13 14 12 12 12 10 6 6 3 4 7 10 8 7 7 7 2 5 8 9 9 8
9 11 12 11 11 11 13 13 13 13 14 14 15 17 16 16 17 17 16 11 11 12 11 12 10 13 13 13 15 10 4 7 6 4 6 7 6 2 5 7 6 7 7
14 11 11 12 10 11 12 12 13 15 15 14 14 14 15 15 14 12 11 11 10 12 11 14 9 7 9 8 13 15 6 7 7 8 8 5 5 6 6 4 5 6 8
12 12 12 12 10 9 7 7 7 4 7 10 15 13 12 11 11 12 10 10 10 12 11 8 4 5 5 3 5 7 10 9 10 9 4 3 4 7 5 6 2 6 8
10 10 12 12 9 8 7 7 6 8 10 12 11 11 11 11 10 11 11 9 11 9 8 6 5 4 4 4 4 6 7 8 7 4 2 3 3 5 7 2 3 7 5
10 8 10 11 8 6 4 6 12 10 11 8 8 10 10 10 7 6 6 6 6 7 5 4 5 4 4 5 6 6 6 6 5 5 3 2 3 2 1 4 3 4 5
7 7 6 6 8 4 10 5 6 7 12 8 8 8 7 8 7 6 3 0 3 2 3 4 3 5 6 5 5 4 4 3 2 2 3 4 4 4 3 3 3 4 4
5 4 7 7 11 7 7 7 7 8 10 8 7 5 5 6 5 5 6 13 8 8 5 5 2 4 11 11 9 5 5 7 8 4 4 4 3 3 3 3 4 3 4
Wind_Direction
210 209 211 212 212 214 211 211 207 210 204 201 209 220 224 228 239 244 252 243 244 234 211 167 166 182 200 153 214 298 311 303 323 306 329 352 158 61 75 75 43 35 23
213 213 215 211 210 211 213 210 213 210 211 210 212 218 211 229 241 239 230 227 228 214 206 181 179 183 157 163 241 295 306 293 11 338 288 349 149 93 72 55 35 38 45
213 212 214 212 209 212 210 210 211 213 214 214 204 180 160 183 206 217 217 215 221 216 201 187 179 173 180 187 179 297 315 315 62 12 323 283 20 324 161 90 48 31 49
218 216 211 212 210 211 208 208 209 211 214 206 207 207 214 221 218 206 206 208 207 197 191 188 179 174 177 172 163 158 256 268 309 169 137 31 334 343 290 147 50 53 46
214 215 213 212 211 209 206 206 206 210 211 204 209 203 218 224 209 181 183 204 184 200 196 189 178 176 187 172 176 168 203 215 279 273 264 202 199 159 290 317 345 28 63
216 217 214 210 211 207 206 203 202 208 205 206 208 207 210 210 200 186 189 192 186 180 186 183 182 184 185 187 179 190 206 207 233 255 256 253 278 291 279 264 293 318 320
215 215 210 204 206 204 201 200 200 209 205 207 208 209 207 205 199 189 195 184 190 196 194 190 190 189 194 195 185 197 198 203 216 224 256 255 253 275 275 286 303 296 311
212 215 206 202 202 202 200 199 199 205 205 205 208 208 203 206 197 198 194 200 195 198 190 196 196 195 197 192 197 211 222 215 230 225 240 251 249 242 251 269 289 289 259
211 210 206 206 205 198 201 200 199 202 207 206 204 204 199 207 202 191 189 193 195 190 188 194 191 191 195 199 198 223 233 240 237 242 237 239 244 248 243 245 255 278 294
209 209 208 205 203 202 203 199 197 202 202 203 206 203 203 198 176 204 168 195 189 205 190 182 194 197 203 205 213 214 214 223 238 241 232 239 248 243 247 250 251 249 272
210 205 204 201 203 204 202 202 202 200 200 201 199 200 197 175 139 168 199 153 182 183 205 199 204 209 206 211 217 233 241 236 243 239 240 246 246 253 248 237 247 249 246
207 204 200 200 202 203 203 204 203 202 202 199 196 192 164 149 166 187 188 151 153 167 213 218 220 218 216 217 224 237 245 239 241 237 236 252 248 245 246 236 246 252 250
202 196 195 198 199 201 203 205 206 211 207 197 194 184 169 170 168 168 146 143 151 173 221 222 226 220 226 220 222 228 237 240 243 249 253 260 264 261 264 249 253 255 250
200 197 194 200 199 200 201 205 212 211 205 199 193 182 176 172 170 163 147 166 146 209 209 207 216 218 225 225 229 225 228 241 245 246 250 255 251 255 265 268 265 265 266
200 199 199 198 195 197 199 203 206 200 197 188 186 184 180 175 169 173 170 174 187 211 217 197 211 220 225 225 224 230 230 238 247 250 252 245 255 258 260 266 274 281 269
207 207 206 197 196 195 195 196 198 196 188 183 189 179 179 175 184 182 184 182 200 210 201 200 210 221 223 211 222 232 233 239 246 255 256 248 232 243 247 252 257 269 270
211 202 201 193 191 192 183 188 186 180 179 185 181 181 185 187 189 185 185 198 213 220 218 211 215 226 220 220 225 219 240 249 248 254 260 263 256 242 269 262 251 249 237
228 206 198 191 181 177 177 171 174 176 178 179 180 189 190 194 190 190 196 203 214 221 223 223 220 225 224 210 208 211 247 259 261 254 259 262 270 259 268 279 279 286 282
183 192 186 175 171 168 161 160 163 165 171 178 187 194 195 192 187 197 200 204 210 229 229 231 226 227 243 118 89 129 326 304 288 277 246 231 253 262 238 272 280 286 287
150 152 147 146 147 147 153 148 154 164 182 183 189 189 197 198 197 199 203 205 212 232 237 231 212 213 214 178 173 125 150 273 270 264 246 224 254 237 223 261 273 281 302
116 118 121 112 110 130 142 153 166 186 189 184 179 186 184 198 201 199 201 196 197 220 214 217 219 223 221 164 146 156 169 216 245 241 232 218 192 213 198 243 266 301 321
93 96 86 85 86 103 131 148 176 149 160 171 171 168 179 190 193 191 203 212 209 216 216 219 201 205 199 199 160 178 202 226 248 248 235 180 181 194 206 240 11 301 293
73 86 96 98 86 97 108 133 140 151 154 195 158 152 178 182 179 189 203 203 204 217 217 194 216 203 181 185 196 210 178 189 227 246 83 99 215 194 210 180 311 287 298
61 64 92 89 89 77 61 143 140 167 165 151 153 169 172 179 183 184 196 201 206 213 210 201 202 172 191 189 161 153 159 150 201 170 192 41 74 25 316 256 254 314 313
81 80 87 106 99 118 91 110 142 167 116 137 163 155 145 141 114 91 49 293 93 329 217 215 206 199 198 167 125 116 170 192 99 211 202 209 216 237 266 295 306 307 303
50 92 112 102 75 99 121 149 157 112 121 143 151 149 143 129 136 136 111 49 28 23 352 328 324 77 70 97 106 122 117 118 152 221 241 231 232 257 289 301 312 297 298